TimeCDT,TemperatureF,Dew PointF,Humidity,Sea Level PressureIn,VisibilityMPH,Wind Direction,Wind SpeedMPH,Gust SpeedMPH,PrecipitationIn,Events,Conditions,WindDirDegrees,DateUTC
12:05 AM,32.0,21.2,64,30.19,10.0,NW,5.8,-,N/A,,Overcast,310,2013-03-26 05:05:00
12:25 AM,32.0,21.2,64,30.19,10.0,NW,5.8,-,N/A,,Overcast,310,2013-03-26 05:25:00
12:45 AM,32.0,19.4,60,30.20,10.0,NW,6.9,-,N/A,,Overcast,310,2013-03-26 05:45:00
1:05 AM,32.0,19.4,60,30.20,10.0,NW,5.8,-,N/A,,Overcast,310,2013-03-26 06:05:00
1:25 AM,32.0,19.4,60,30.20,10.0,NW,5.8,-,N/A,,Overcast,310,2013-03-26 06:25:00
1:45 AM,32.0,19.4,60,30.21,10.0,NW,6.9,-,N/A,,Overcast,310,2013-03-26 06:45:00
2:05 AM,32.0,19.4,60,30.21,10.0,NW,4.6,-,N/A,,Overcast,320,2013-03-26 07:05:00
2:25 AM,32.0,19.4,60,30.21,10.0,NW,5.8,-,N/A,,Overcast,320,2013-03-26 07:25:00
2:45 AM,32.0,19.4,60,30.21,10.0,NW,4.6,-,N/A,,Overcast,320,2013-03-26 07:45:00
3:05 AM,30.2,19.4,64,30.21,10.0,NW,3.5,-,N/A,,Overcast,320,2013-03-26 08:05:00
3:25 AM,30.2,19.4,64,30.21,10.0,NW,5.8,-,N/A,,Overcast,320,2013-03-26 08:25:00
3:45 AM,30.2,19.4,64,30.21,10.0,NW,4.6,-,N/A,,Overcast,320,2013-03-26 08:45:00
4:05 AM,30.2,19.4,64,30.21,10.0,NW,5.8,-,N/A,,Overcast,310,2013-03-26 09:05:00
4:25 AM,30.2,19.4,64,30.21,10.0,NW,3.5,-,N/A,,Overcast,320,2013-03-26 09:25:00
4:45 AM,30.2,19.4,64,30.21,10.0,NW,3.5,-,N/A,,Overcast,320,2013-03-26 09:45:00
5:05 AM,30.2,19.4,64,30.22,10.0,NNW,3.5,-,N/A,,Overcast,330,2013-03-26 10:05:00
5:25 AM,30.2,19.4,64,30.22,10.0,Calm,Calm,-,N/A,,Overcast,0,2013-03-26 10:25:00
5:45 AM,28.4,19.4,69,30.22,10.0,WNW,3.5,-,N/A,,Overcast,300,2013-03-26 10:45:00
6:05 AM,28.4,19.4,69,30.23,10.0,NW,3.5,-,N/A,,Overcast,310,2013-03-26 11:05:00
6:25 AM,28.4,19.4,69,30.23,10.0,WNW,4.6,-,N/A,,Overcast,300,2013-03-26 11:25:00
6:45 AM,28.4,19.4,69,30.23,10.0,NW,4.6,-,N/A,,Overcast,310,2013-03-26 11:45:00
7:05 AM,28.4,19.4,69,30.24,10.0,NW,3.5,-,N/A,,Overcast,310,2013-03-26 12:05:00
7:25 AM,28.4,19.4,69,30.24,10.0,WNW,4.6,-,N/A,,Overcast,300,2013-03-26 12:25:00
7:45 AM,28.4,19.4,69,30.25,10.0,WNW,3.5,-,N/A,,Overcast,300,2013-03-26 12:45:00
8:05 AM,28.4,19.4,69,30.25,10.0,WNW,4.6,-,N/A,,Overcast,300,2013-03-26 13:05:00
8:25 AM,28.4,19.4,69,30.26,10.0,WNW,3.5,-,N/A,,Overcast,300,2013-03-26 13:25:00
8:45 AM,28.4,19.4,69,30.26,10.0,WNW,4.6,-,N/A,,Overcast,300,2013-03-26 13:45:00
9:05 AM,30.2,19.4,64,30.26,10.0,WNW,3.5,-,N/A,,Overcast,300,2013-03-26 14:05:00
9:25 AM,30.2,19.4,64,30.26,10.0,NW,3.5,-,N/A,,Overcast,320,2013-03-26 14:25:00
9:45 AM,32.0,19.4,60,30.27,10.0,NW,4.6,-,N/A,,Overcast,320,2013-03-26 14:45:00
10:05 AM,32.0,19.4,60,30.27,10.0,NW,4.6,-,N/A,,Overcast,320,2013-03-26 15:05:00
10:25 AM,32.0,19.4,60,30.27,10.0,NNW,3.5,-,N/A,,Overcast,340,2013-03-26 15:25:00
10:45 AM,32.0,21.2,64,30.27,10.0,NW,5.8,-,N/A,,Overcast,310,2013-03-26 15:45:00
11:05 AM,33.8,19.4,56,30.27,10.0,NW,4.6,-,N/A,,Overcast,310,2013-03-26 16:05:00
11:25 AM,33.8,19.4,56,30.27,10.0,NW,4.6,-,N/A,,Overcast,320,2013-03-26 16:25:00
12:14 PM,37.4,20.8,51,30.27,10.0,WNW,3.5,-,N/A,,Overcast,290,2013-03-26 17:14:00
12:15 PM,37.2,20.8,52,30.26,10.0,West,3.5,-,N/A,,Overcast,280,2013-03-26 17:15:00
12:35 PM,36.9,21.0,53,30.26,10.0,Calm,Calm,-,N/A,,Overcast,0,2013-03-26 17:35:00
12:55 PM,37.8,20.8,51,30.26,10.0,Calm,Calm,-,N/A,,Overcast,0,2013-03-26 17:55:00
1:15 PM,37.2,20.3,50,30.26,10.0,NNW,4.6,-,N/A,,Overcast,330,2013-03-26 18:15:00
1:35 PM,36.5,19.0,49,30.26,10.0,NW,3.5,-,N/A,,Overcast,310,2013-03-26 18:35:00
1:55 PM,37.4,19.8,49,30.25,10.0,WNW,3.5,-,N/A,,Mostly Cloudy,290,2013-03-26 18:55:00
2:15 PM,37.9,19.0,47,30.25,10.0,WSW,3.5,-,N/A,,Scattered Clouds,240,2013-03-26 19:15:00
2:35 PM,39.6,18.5,43,30.25,10.0,West,3.5,-,N/A,,Clear,280,2013-03-26 19:35:00
2:55 PM,39.6,16.7,40,30.25,10.0,Calm,Calm,-,N/A,,Mostly Cloudy,0,2013-03-26 19:55:00
3:15 PM,39.7,15.8,38,30.25,10.0,Calm,Calm,-,N/A,,Overcast,0,2013-03-26 20:15:00
3:35 PM,38.7,16.3,40,30.24,10.0,Calm,Calm,-,N/A,,Overcast,0,2013-03-26 20:35:00
3:55 PM,39.4,18.7,43,30.24,10.0,WNW,5.8,-,N/A,,Overcast,300,2013-03-26 20:55:00
4:15 PM,37.9,19.8,48,30.24,10.0,NW,5.8,-,N/A,,Overcast,310,2013-03-26 21:15:00
4:35 PM,37.6,19.8,49,30.24,10.0,WNW,6.9,-,N/A,,Overcast,300,2013-03-26 21:35:00
4:55 PM,38.3,21.0,50,30.24,10.0,West,3.5,-,N/A,,Overcast,280,2013-03-26 21:55:00
5:15 PM,37.8,20.3,49,30.24,10.0,West,3.5,-,N/A,,Overcast,280,2013-03-26 22:15:00
5:35 PM,37.4,20.7,51,30.24,10.0,Calm,Calm,-,N/A,,Overcast,0,2013-03-26 22:35:00
5:55 PM,37.4,19.8,49,30.24,10.0,NW,3.5,-,N/A,,Overcast,310,2013-03-26 22:55:00
6:15 PM,36.9,19.8,50,30.24,10.0,NW,3.5,-,N/A,,Overcast,320,2013-03-26 23:15:00
6:35 PM,36.7,19.4,50,30.25,10.0,Calm,Calm,-,N/A,,Overcast,0,2013-03-26 23:35:00
6:55 PM,36.5,20.3,52,30.25,10.0,Calm,Calm,-,N/A,,Overcast,0,2013-03-26 23:55:00
7:15 PM,35.6,21.9,58,30.25,10.0,Calm,Calm,-,N/A,,Overcast,0,2013-03-27 00:15:00
7:35 PM,35.1,21.2,57,30.25,10.0,Calm,Calm,-,N/A,,Overcast,0,2013-03-27 00:35:00
7:55 PM,34.7,20.8,57,30.25,10.0,West,3.5,-,N/A,,Overcast,260,2013-03-27 00:55:00
8:15 PM,34.0,21.0,59,30.25,10.0,West,3.5,-,N/A,,Overcast,260,2013-03-27 01:15:00
8:35 PM,33.8,21.0,60,30.26,10.0,West,3.5,-,N/A,,Overcast,260,2013-03-27 01:35:00
8:56 PM,33.3,21.9,63,30.26,10.0,Calm,Calm,-,N/A,,Overcast,0,2013-03-27 01:56:00
9:15 PM,33.3,22.1,64,30.26,10.0,Calm,Calm,-,N/A,,Overcast,0,2013-03-27 02:15:00
9:35 PM,33.1,21.6,63,30.26,10.0,West,3.5,-,N/A,,Overcast,260,2013-03-27 02:35:00
9:56 PM,32.9,21.7,64,30.26,10.0,Calm,Calm,-,N/A,,Overcast,0,2013-03-27 02:56:00
10:15 PM,32.5,21.4,64,30.26,10.0,Calm,Calm,-,N/A,,Overcast,0,2013-03-27 03:15:00
10:35 PM,32.2,21.9,66,30.27,10.0,Calm,Calm,-,N/A,,Overcast,0,2013-03-27 03:35:00
10:56 PM,32.0,21.6,65,30.27,10.0,West,3.5,-,N/A,,Overcast,270,2013-03-27 03:56:00
11:15 PM,32.0,22.3,67,30.27,10.0,Calm,Calm,-,N/A,,Overcast,0,2013-03-27 04:15:00
11:35 PM,32.0,21.2,64,30.27,10.0,Calm,Calm,-,N/A,,Overcast,0,2013-03-27 04:35:00
11:56 PM,32.4,20.3,61,30.28,10.0,Calm,Calm,-,N/A,,Overcast,0,2013-03-27 04:56:00